| time (UTC) | temp F | wind direction | speed knots | gust knots | rain 1hr in | rain 24hr in | rain mn in | humidity % | barometer mb |
| 20260506174543 | 53 | 286 | 0.9 | 6.1 | 0.00 | 0.18 | 0.16 | 80 | 1008.8 |
| 20260506173056 | 53 | 0 | 0.9 | 6.1 | 0.00 | 0.18 | 0.16 | 81 | 1008.7 |
| 20260506171545 | 53 | 190 | 0.9 | 5.2 | 0.00 | 0.18 | 0.16 | 82 | 1008.6 |
| 20260506170048 | 53 | 230 | 2.6 | 8.7 | 0.00 | 0.18 | 0.16 | 81 | 1008.5 |
| 20260506164544 | 53 | 225 | 1.7 | 9.6 | 0.00 | 0.19 | 0.16 | 82 | 1008.5 |
| 20260506163044 | 53 | 29 | 0.0 | 2.6 | 0.00 | 0.19 | 0.16 | 83 | 1008.5 |
| 20260506161548 | 53 | 271 | 1.7 | 10.4 | 0.00 | 0.19 | 0.16 | 83 | 1008.4 |
| 20260506160052 | 53 | 258 | 1.7 | 6.1 | 0.00 | 0.19 | 0.16 | 85 | 1008.2 |
| 20260506154546 | 52 | 0 | 0.9 | 9.6 | 0.00 | 0.19 | 0.16 | 88 | 1008.4 |
| 20260506153104 | 52 | 264 | 0.9 | 5.2 | 0.00 | 0.19 | 0.16 | 88 | 1008.4 |
| 20260506151548 | 52 | 0 | 0.0 | 4.3 | 0.00 | 0.19 | 0.16 | 88 | 1008.4 |
| 20260506150056 | 52 | 253 | 0.9 | 4.3 | 0.00 | 0.18 | 0.15 | 89 | 1008.5 |
| 20260506144553 | 52 | 0 | 0.0 | 2.6 | 0.00 | 0.18 | 0.15 | 89 | 1008.6 |
| 20260506143042 | 51 | 341 | 0.0 | 2.6 | 0.00 | 0.18 | 0.15 | 89 | 1008.3 |
| 20260506141541 | 51 | 342 | 1.7 | 9.6 | 0.03 | 0.18 | 0.15 | 89 | 1008.3 |
| 20260506140042 | 51 | 207 | 2.6 | 7.8 | 0.05 | 0.18 | 0.15 | 89 | 1008.2 |
| 20260506134546 | 51 | 252 | 2.6 | 8.7 | 0.07 | 0.18 | 0.15 | 88 | 1008.2 |
| 20260506133047 | 51 | 238 | 0.9 | 12.2 | 0.07 | 0.18 | 0.14 | 88 | 1008.4 |
| 20260506131551 | 51 | 221 | 3.5 | 9.6 | 0.07 | 0.15 | 0.12 | 87 | 1008.4 |
| 20260506130042 | 51 | 173 | 5.2 | 12.2 | 0.07 | 0.13 | 0.10 | 86 | 1008.2 |
| 20260506124542 | 51 | 201 | 5.2 | 12.2 | 0.05 | 0.11 | 0.07 | 85 | 1007.8 |
| 20260506123048 | 52 | 225 | 6.1 | 15.6 | 0.04 | 0.10 | 0.07 | 84 | 1007.2 |
| 20260506121545 | 55 | 194 | 8.7 | 20.0 | 0.02 | 0.07 | 0.04 | 80 | 1007.0 |
| 20260506120044 | 58 | 313 | 2.6 | 8.7 | 0.00 | 0.05 | 0.02 | 79 | 1006.4 |
| 20260506114544 | 58 | 221 | 0.9 | 7.0 | 0.00 | 0.06 | 0.02 | 77 | 1006.1 |
| 20260506113043 | 59 | 254 | 2.6 | 7.0 | 0.00 | 0.06 | 0.02 | 76 | 1005.8 |
| 20260506111549 | 59 | 221 | 1.7 | 8.7 | 0.00 | 0.06 | 0.02 | 78 | 1005.8 |
| 20260506110045 | 59 | 277 | 1.7 | 6.1 | 0.00 | 0.06 | 0.02 | 79 | 1005.9 |
| 20260506104545 | 58 | 336 | 1.7 | 6.1 | 0.00 | 0.06 | 0.02 | 80 | 1005.8 |
| 20260506103051 | 58 | 267 | 2.6 | 7.0 | 0.00 | 0.06 | 0.02 | 78 | 1005.9 |
| 20260506101541 | 58 | 274 | 0.9 | 3.5 | 0.00 | 0.06 | 0.02 | 78 | 1005.8 |
| 20260506100048 | 58 | 270 | 0.0 | 3.5 | 0.00 | 0.06 | 0.02 | 77 | 1005.7 |
| 20260506094546 | 58 | 285 | 0.0 | 5.2 | 0.00 | 0.07 | 0.01 | 76 | 1006.0 |
| 20260506093046 | 58 | 166 | 0.9 | 3.5 | 0.00 | 0.07 | 0.01 | 77 | 1006.1 |
| 20260506091550 | 57 | 265 | 0.9 | 3.5 | 0.00 | 0.07 | 0.01 | 79 | 1005.9 |
| 20260506090042 | 58 | 0 | 0.0 | 2.6 | 0.00 | 0.07 | 0.01 | 80 | 1005.7 |
| 20260506084546 | 57 | 349 | 0.0 | 1.7 | 0.00 | 0.07 | 0.00 | 79 | 1005.9 |
| 20260506083049 | 57 | 0 | 0.0 | 1.7 | 0.00 | 0.07 | 0.00 | 80 | 1005.9 |
| 20260506081547 | 57 | 0 | 0.0 | 1.7 | 0.00 | 0.07 | 0.00 | 83 | 1005.9 |
| 20260506073042 | 56 | 0 | 0.0 | 1.7 | 0.00 | 0.07 | 0.00 | 88 | 1006.0 |
| 20260506071540 | 55 | 273 | 0.0 | 0.9 | 0.00 | 0.07 | 0.00 | 89 | 1006.0 |
| 20260506061544 | 53 | 273 | 0.0 | 1.7 | 0.00 | 0.07 | 0.00 | 90 | 1006.0 |
| 20260506044549 | 52 | 0 | 0.0 | 0.9 | 0.00 | 0.07 | 0.00 | 87 | 1006.0 |
| 20260506043047 | 52 | 0 | 0.0 | 0.9 | 0.00 | 0.07 | 0.00 | 87 | 1006.1 |
| 20260506041543 | 52 | 148 | 0.0 | 1.7 | 0.00 | 0.07 | 0.00 | 87 | 1006.1 |
| 20260506040044 | 52 | 0 | 0.0 | 1.7 | 0.00 | 0.07 | 0.00 | 87 | 1006.3 |
| 20260506034557 | 52 | 0 | 0.0 | 0.9 | 0.00 | 0.07 | 0.00 | 87 | 1006.6 |
| 20260506033048 | 53 | 0 | 0.0 | 0.9 | 0.00 | 0.07 | 0.00 | 87 | 1006.7 |
| 20260506031545 | 53 | 0 | 0.0 | 0.9 | 0.00 | 0.07 | 0.00 | 87 | 1006.8 |
| 20260506030045 | 53 | 0 | 0.0 | 1.7 | 0.00 | 0.07 | 0.00 | 87 | 1006.9 |
| 20260506024557 | 53 | 198 | 0.0 | 1.7 | 0.00 | 0.07 | 0.00 | 86 | 1007.0 |
| 20260506023042 | 54 | 78 | 0.0 | 2.6 | 0.00 | 0.07 | 0.00 | 87 | 1007.2 |
| 20260506021545 | 54 | 351 | 0.0 | 1.7 | 0.00 | 0.07 | 0.00 | 87 | 1007.3 |
| 20260506020043 | 54 | 0 | 0.0 | 0.9 | 0.00 | 0.07 | 0.00 | 87 | 1007.4 |
| 20260506014546 | 54 | 173 | 0.0 | 2.6 | 0.00 | 0.07 | 0.00 | 86 | 1007.5 |
| 20260506013059 | 54 | 0 | 0.0 | 0.0 | 0.00 | 0.07 | 0.00 | 86 | 1007.7 |
| 20260506011610 | 54 | 324 | 0.0 | 0.9 | 0.00 | 0.07 | 0.00 | 86 | 1007.7 |
| 20260506010044 | 54 | 0 | 0.0 | 1.7 | 0.00 | 0.07 | 0.00 | 86 | 1007.8 |
| 20260506004542 | 54 | 0 | 0.0 | 1.7 | 0.00 | 0.07 | 0.00 | 85 | 1007.9 |
| 20260506003041 | 54 | 98 | 0.0 | 2.6 | 0.00 | 0.07 | 0.00 | 85 | 1008.1 |
| 20260506001548 | 54 | 128 | 0.0 | 6.1 | 0.00 | 0.07 | 0.00 | 85 | 1008.3 |
| 20260506000050 | 54 | 138 | 0.9 | 3.5 | 0.00 | 0.07 | 0.00 | 85 | 1008.4 |
| 20260505234544 | 54 | 0 | 0.0 | 1.7 | 0.00 | 0.07 | 0.00 | 85 | 1008.4 |
| 20260505233041 | 55 | 0 | 0.0 | 1.7 | 0.00 | 0.07 | 0.00 | 84 | 1008.5 |
| 20260505231545 | 55 | 0 | 0.9 | 2.6 | 0.00 | 0.07 | 0.00 | 84 | 1008.6 |
| 20260505230057 | 55 | 269 | 0.0 | 3.5 | 0.00 | 0.07 | 0.00 | 83 | 1008.7 |
| 20260505224546 | 55 | 134 | 0.9 | 4.3 | 0.00 | 0.07 | 0.00 | 82 | 1008.7 |
| 20260505223102 | 55 | 162 | 0.0 | 7.0 | 0.00 | 0.07 | 0.00 | 82 | 1008.6 |
| 20260505221542 | 55 | 0 | 0.0 | 4.3 | 0.01 | 0.07 | 0.00 | 82 | 1008.8 |
| 20260505220048 | 55 | 180 | 2.6 | 7.0 | 0.00 | 0.06 | 0.00 | 81 | 1008.8 |
| 20260505214544 | 55 | 215 | 2.6 | 7.8 | 0.01 | 0.06 | 0.06 | 82 | 1009.0 |
| 20260505213054 | 56 | 0 | 0.0 | 2.6 | 0.01 | 0.06 | 0.06 | 81 | 1009.2 |
| 20260505211550 | 56 | 160 | 0.0 | 2.6 | 0.00 | 0.05 | 0.05 | 80 | 1009.3 |
| 20260505210041 | 57 | 150 | 0.0 | 2.6 | 0.00 | 0.05 | 0.05 | 78 | 1009.3 |
| 20260505204547 | 57 | 156 | 0.9 | 3.5 | 0.00 | 0.04 | 0.04 | 76 | 1009.3 |
| 20260505203051 | 58 | 204 | 0.0 | 3.5 | 0.00 | 0.04 | 0.04 | 75 | 1009.2 |
| 20260505201546 | 58 | 182 | 1.7 | 7.8 | 0.00 | 0.04 | 0.04 | 72 | 1009.2 |
| 20260505200042 | 58 | 202 | 3.5 | 6.1 | 0.00 | 0.04 | 0.04 | 71 | 1008.9 |
| 20260505194550 | 58 | 194 | 1.7 | 7.0 | 0.00 | 0.04 | 0.04 | 73 | 1008.8 |
| 20260505193041 | 57 | 148 | 4.3 | 12.2 | 0.00 | 0.04 | 0.04 | 74 | 1008.6 |
| 20260505191541 | 57 | 194 | 3.5 | 8.7 | 0.00 | 0.04 | 0.04 | 77 | 1008.7 |
| 20260505190047 | 57 | 181 | 2.6 | 9.6 | 0.00 | 0.04 | 0.04 | 78 | 1008.5 |
| 20260505184544 | 57 | 188 | 2.6 | 9.6 | 0.00 | 0.04 | 0.04 | 78 | 1008.2 |
| 20260505183049 | 57 | 179 | 1.7 | 9.6 | 0.00 | 0.04 | 0.04 | 80 | 1008.5 |
| 20260505181541 | 57 | 184 | 2.6 | 7.8 | 0.00 | 0.04 | 0.04 | 82 | 1008.6 |
| 20260505180042 | 57 | 200 | 2.6 | 7.8 | 0.00 | 0.04 | 0.04 | 82 | 1008.6 |